DELTA 1 DEB, 7032

Orbit data source: Space-Track

DELTA 1 DEB, 7032 is space debris in SSO originally from a launch on Tue, 06 Nov 1973 UTC launched from the Air Force Western Test Range (AFWTR). Debris objects in space refer to the collection of defunct objects orbiting the Earth. Examples of debris include non-operational satellites, rocket bodies, and fragments generated from explosions, collisions, or faulty payload assembly.

Loading next visibility...
Identifier
7032, 1973-086Y
Orbit
SSO
Country
Flag of USUS
Related business
Manufacturer
Unknown
Mission
Spacecraft
Bus & Motor
Unknown
Mass
Unknown
Launch date (UTC)
1973-11-06 (52 years ago)
Launch vehicle
Unknown
Launch site
Air Force Western Test Range (AFWTR)
Object type
Payload
Rocket body
Debris
Shape & HBR
Unknown shape, 1.7 m
Radar Cross Section
Large (>1 m²)

Expand to show TLE details & history
Last TLE update: 10 hours ago

TLE from 10 hours ago
0 DELTA 1 DEB
1  7032U 73086Y   25297.96660394 -.00000032  00000-0  11424-3 0  9995
2  7032 102.4239 300.3161 0029479 186.3821 229.3533 12.34771622341919
Epoch: 2025-10-24T23:11Z
TLE epoch observation values (Epoch: 2025-10-24T23:11:54.580Z)
Latitude
53.66887°
Longitude
-98.60918°
Altitude
1,552.627 km
Speed
7.089 km/s
True Right ascension
18h 51m 53s
True Declination
53° 31' 16"
Sunlit
Object was in daylight at epoch
Visualization orbit readout
Latitude
Unknown
Longitude
Unknown
Altitude
Unknown
Speed
Unknown
Apparent Right ascension
Unknown
Apparent Declination
Unknown
Sunlit
N/A
Visualization observer readout
Local Sidereal Time
04:50:41
Azimuth
Unknown
Elevation
Unknown
Doppler factor
Unknown
Orbital elements
Apogee altitude
1,549.754 km
Perigee altitude
1,503.15 km
Semi-major axis
7,904.589 km
Eccentricity
0.00295
Inclination
102.4239°
RAAN
300.3161°
Arg. of periapsis
186.3821°
True anomaly
229.09761°
Mean anomaly
229.3533°
Eccentric anomaly
229.22539°
Mean motion
3.08833 °/min
Orbital period
116.57 mins
BSTAR
0.00011424
Loading maneuver chart data...
Computing Atmospheric mass density...
Loading historical data...
Loading historical data...
Loading historical data...
Loading historical data...
Loading historical data...
Loading historical data...
Loading historical data...

Documentation

Showing up to 5 results
|